Home   Weather   Fagernes   Past weeks

Flag for Norway Past Weather in Fagernes, Norway — Yesterday and Last 2 Weeks

Now
49 °F

Cool.


Feels Like: 49 °F
Forecast: 41 / 57 °F
Wind: 1 mph from Northwest

Location: Fagernes

Current Time: Sep 29, 2016 at 12:20:52 AM

Latest Report: Sep 28, 2016 at 11:00 PM


Visibility: N/A

Pressure: 29.65 "Hg

Humidity: 60%

Dew Point: 35 °F

Location of FagernesLocation

Past Weather in Fagernes — Graph

°F

Fagernes Temperature Yesterday

Maximum temperature yesterday: 56 °F (at 3:00 PM)
Minimum temperature yesterday: 46 °F (at 4:00 AM)
Average temperature yesterday: 51 °F

High & Low Weather Summary for the Past Weeks

 TemperatureHumidityPressure
High69 °F (Sep 15, 5:00 PM)95% (Sep 15, 7:00 AM)30.27 "Hg (Sep 15, 7:00 AM)
Low38 °F (Sep 24, 7:00 AM)37% (Sep 26, 4:00 PM)29.44 "Hg (Sep 28, 8:00 AM)
Average54 °F82%30.08 "Hg
* Reported Sep 13 11:00 PM — Sep 28 11:00 PM, Fagernes, Weather by CustomWeather, © 2016

Note: Actual official high and low records may vary slightly from our data, if they occured in-between our weather recording intervals... More about our weather records

Advertising

Fagernes Weather History for the Previous 24 Hours

Scroll right to see more
 ConditionsComfort  
Time TempWeatherWind HumidityBarometerVisibility
11:00 PM
Wed, Sep 28
49 °FCool.1 mph60%29.65 "HgN/A
10:00 PM50 °FCool.3 mph55%29.64 "HgN/A
9:00 PM49 °FCool.1 mph52%29.65 "HgN/A
8:00 PM50 °FPassing clouds.No wind57%29.64 "Hg19 mi
7:00 PM53 °FCool.1 mph52%29.61 "HgN/A
6:00 PM54 °FCool.No wind53%29.59 "HgN/A
5:00 PM55 °FCool.1 mph57%29.57 "HgN/A
4:00 PM55 °FCool.No wind62%29.54 "HgN/A
3:00 PM56 °FRefreshingly cool.1 mph59%29.50 "HgN/A
2:00 PM55 °FCool.No wind62%29.50 "HgN/A
1:00 PM54 °FCool.No wind65%29.47 "HgN/A
12:00 PM54 °FCool.No wind64%29.47 "HgN/A
11:00 AM53 °FCool.1 mph66%29.44 "HgN/A
10:00 AM54 °FCool.1 mph57%29.44 "HgN/A
9:00 AM49 °FCool.No wind67%29.44 "HgN/A
8:00 AM50 °FOvercast.2 mph63%29.44 "Hg19 mi
7:00 AM48 °FCool.1 mph80%29.47 "HgN/A
6:00 AM49 °FCool.2 mph81%29.47 "HgN/A
5:00 AM47 °FRain. Overcast.1 mph81%29.50 "Hg9 mi
4:00 AM46 °FCool.No wind83%29.50 "HgN/A
3:00 AM47 °FCool.1 mph79%29.55 "HgN/A
2:00 AM47 °FRain. Overcast.1 mph78%29.57 "Hg9 mi
1:00 AM49 °FCool.2 mph75%29.58 "HgN/A
12:00 AM49 °FCool.No wind87%29.59 "HgN/A
Weather by CustomWeather, © 2016

See weather overviewHow to use our weather pages